Location: *
(50.2903°S, 172.5375°W)
Time: 10:47:42
(UTC+00:00)

Resurs 1-4 Rocket - Pass Details

Date: 23 February 2020
Orbit: 800 x 814 km, 98.6° (Epoch: 05 April)

Event Time Altitude Azimuth Distance (km) Brightness Sun altitude
Exits shadow 13:44:40 16° 252° (WSW) 2,043 4.0 -24.3°
Drops below altitude 10° 13:46:50 10° 228° (SW) 2,419 4.7 -24.1°
Sets 13:50:06 0° 208° (SSW) 3,357 5.7 -23.8°
